Regional Weather Roundup
Issued by NWS Newport/Morehead, NC

Current Version | Previous Version | Graphics & Text | Print | Product List | Glossary Off
Versions: 1 2 3 4 5 6 7 8 9 10 11 12 13 14 15 16 17 18 19 20 21 22 23 24 25 26 27 28 29 30 31 32 33 34 35 36 37 38 39 40 41 42 43 44 45 46 47 48 49 50

000
ASUS42 KMHX 171310
RWRMHX
WEATHER ROUNDUP FOR EASTERN NORTH CAROLINA
NATIONAL WEATHER SERVICE NEWPORT/MOREHEAD CITY NC
900 AM EDT THU APR 17 2014

NOTE: "FAIR" INDICATES FEW OR NO CLOUDS BELOW 12,000 FEET
WITH NO SIGNIFICANT WEATHER AND/OR OBSTRUCTIONS TO VISIBILITY

NCZ015>017-031-032-045>047-102-103-171400-
NORTH COAST

CITY           SKY/WX    TMP DP  RH WIND       PRES   REMARKS
EDENTON        SUNNY     47  39  73 NE12      30.52S
ELIZABETH CITY SUNNY     49  38  65 N22G29    30.53R
KITTY HAWK     PTSUNNY   48  40  73 N12G23    30.50R
MANTEO         CLOUDY    49  40  71 NE18G28   30.50S

$$

NCZ045>047-081-094-103-104-171400-
CENTRAL COAST

CITY           SKY/WX    TMP DP  RH WIND       PRES   REMARKS
FRISCO         MOSUNNY   51  44  77 NE16G31   30.44S
SWANQUARTER      N/A     50 N/A N/A NE12G26   30.44S

$$

NCZ095-097-098-100-101-171400-
SOUTHERN COAST

CITY           SKY/WX    TMP DP  RH WIND       PRES   REMARKS
BEAUFORT       SUNNY     52  43  71 NE14G26   30.45R
CEDAR ISLAND     N/A     52 N/A N/A N28G33    30.50R
JACKSONVILLE   SUNNY     46  38  73 NE12      30.47R
NEWPORT          N/A     52  43  71 N12G17      N/A
PINEY ISLAND   SUNNY     54  44  69 NE18G28   30.45S
WILMINGTON     SUNNY     48  36  63 N14       30.46R


$$

NCZ011>013-027>030-043-044-078>080-089-090>093-098-171400-
COASTAL PLAIN

CITY           SKY/WX    TMP DP  RH WIND       PRES   REMARKS
AHOSKIE        SUNNY     43  35  73 N9        30.55S
CLINTON        SUNNY     44  34  67 N10G18    30.51R
ELIZABETHTOWN  SUNNY     44  34  68 N6        30.49S
GOLDSBORO      SUNNY     44  35  71 N12       30.50R
GREENVILLE     SUNNY     45  36  70 NE12G18   30.52R
HAVELOCK       MOSUNNY   50  40  68 NE14      30.48R
KENANSVILLE    SUNNY     43  34  70 NE7       30.51R
KINSTON        SUNNY     45  36  70 N13       30.51R
NEW BERN       SUNNY     49  39  68 N13       30.49S
RICHLANDS      SUNNY     45  34  65 N15G21    30.49R
ROANOKE RAPIDS NOT AVBL
ROCKY MOUNT      N/A    N/A N/A N/A MISG      30.54R
WASHINGTON     SUNNY     46  39  76 N14       30.50S
WHITEVILLE     SUNNY     45  34  65 NE12      30.47R

$$

AMZ130-135-150-152-154-156-158-170-250-252-270-ANZ085-086-088-633-658-670-171400-
MARINE OBSERVATIONS

STATION/POSITION TIME  TEMP    WIND        PRES    WAVE   SWELL
                       AIR SEA DIR/SP/G            HT/PER HT/PER
                 (UTC) (F)     (DEG/KT/KT) (MB)    (FT/S) (FT/S)
CHESAPEAKE LIGHT 1200   45      40/ 24/ 26 1034.5
BUOY 44014       1300   50 51   20/ 25/ 29 1032.0   10/10   7/10
DUCK             1300   47 48   20/ 22/ 28 1032.2
2E DUCK          1300      48                N/A     7/ 7   2/11
OREGON INLET     1300   49 48   10/ 17/ 23 1032.0
BUOY 44095       1300      49                N/A     9/11   3/11
HATTERAS CG      1300   50 53   10/ 26/ 31 1030.8
DIAMOND BUOY     NOT AVBL
CAPE LOOKOUT     1200   50      20/ 21/ 25 1030.2
BEAUFORT LAB     1300   50 58   30/ 15/ 21 1030.3
30 SE NEW RIVER  1300   52 64   30/ 21/ 27 1030.2    7/ 6   3/10
5 SE WRIGHTSVILL 1200   47 60   30/ 23/ 27 1029.3
FRYING PAN BUOY  1300   56 62   50/ 23/ 27 1028.4    9/ 7   2/10
BUOY 41001       NOT AVBL
BUOY 41002       NOT AVBL
BUOY 41004       NOT AVBL

$$



USA.gov is the U.S. government's official web portal to all federal, state and local government web resources and services.